EST,Max TemperatureF,Mean TemperatureF,Min TemperatureF,Max Dew PointF,MeanDew PointF,Min DewpointF,Max Humidity, Mean Humidity, Min Humidity, Max Sea Level PressureIn, Mean Sea Level PressureIn, Min Sea Level PressureIn, Max VisibilityMiles, Mean VisibilityMiles, Min VisibilityMiles, Max Wind SpeedMPH, Mean Wind SpeedMPH, Max Gust SpeedMPH,PrecipitationIn, CloudCover, Events, WindDirDegrees
2012-11-1,79,69,59,60,57,51,88,69,37,30.05,30.00,29.93,10,10,10,15,11,,0.00,0,,257
2012-11-2,74,66,59,60,52,41,93,64,33,30.11,30.06,30.02,10,10,10,12,7,,0.00,0,,306
2012-11-3,79,69,59,66,60,52,93,76,56,30.14,30.10,30.06,10,10,10,10,7,,0.00,0,,308
2012-11-4,80,70,61,68,62,59,95,76,53,30.13,30.07,30.01,10,10,6,9,6,,0.00,0,,212
2012-11-5,75,70,64,67,64,60,93,81,73,30.01,29.98,29.94,10,10,10,9,6,,0.00,0,,327
2012-11-6,76,70,64,64,61,55,94,76,54,29.96,29.88,29.82,10,10,10,14,7,,0.00,2,,257
2012-11-7,67,62,57,56,50,42,94,68,43,30.00,29.91,29.85,10,10,10,23,16,26,0.00,2,,289
2012-11-8,65,58,52,49,46,43,74,62,51,30.18,30.10,29.99,10,10,10,17,14,,0.00,0,,315
2012-11-9,71,64,58,55,50,44,74,60,48,30.26,30.22,30.17,10,10,10,18,14,,0.00,0,,333
2012-11-10,75,69,63,58,55,52,74,61,47,30.32,30.27,30.22,10,10,10,14,11,,0.00,6,,23
2012-11-11,78,74,69,66,63,55,83,70,55,30.31,30.26,30.24,10,10,10,23,13,21,0.05,4,Rain,82
2012-11-12,78,74,71,68,67,64,88,78,68,30.26,30.21,30.18,10,10,10,18,11,,0.00,2,,100
2012-11-13,77,72,67,68,66,62,95,82,67,30.19,30.15,30.11,10,10,7,15,7,,0.00,2,,10
2012-11-14,77,72,67,69,66,64,94,88,66,30.18,30.14,30.11,10,8,1,12,7,,0.35,4,Rain,334
2012-11-15,69,66,62,66,64,60,100,93,81,30.15,30.11,30.07,10,7,0,17,9,,0.00,7,Fog,322
2012-11-16,72,66,60,63,60,59,94,88,67,30.15,30.12,30.09,10,10,10,18,14,23,0.02,4,Rain,327
2012-11-17,75,70,64,66,63,61,94,80,65,30.15,30.13,30.10,10,10,10,17,11,,0.01,2,Rain,353
2012-11-18,73,68,62,64,62,55,94,81,67,30.18,30.14,30.09,10,10,10,22,16,28,0.00,4,,341
2012-11-19,61,60,58,57,56,55,94,88,82,30.15,30.10,30.05,10,10,10,18,16,22,0.00,7,,312
2012-11-20,70,65,60,61,59,56,91,82,68,30.06,30.02,29.99,10,10,10,21,17,29,0.00,4,,321
2012-11-21,68,64,60,58,55,48,89,74,58,30.06,30.03,29.99,10,10,10,21,16,25,0.00,1,,327
2012-11-22,68,62,56,53,50,47,79,67,51,30.16,30.10,30.04,10,10,10,21,17,28,0.00,0,,320
2012-11-23,70,62,55,54,47,36,80,61,36,30.19,30.14,30.10,10,10,10,16,12,,0.00,0,,320
2012-11-24,69,62,54,57,53,45,91,77,60,30.11,30.06,30.01,10,10,10,14,9,,0.00,0,,314
2012-11-25,69,61,53,54,50,46,82,68,44,30.17,30.13,30.08,10,10,10,12,8,,0.00,0,,337
2012-11-26,73,66,58,64,59,52,88,77,62,30.25,30.19,30.15,10,10,10,8,6,,0.00,0,,28
2012-11-27,76,70,63,64,62,61,95,79,59,30.22,30.16,30.11,10,10,10,14,6,,0.00,2,Rain,179
2012-11-28,71,66,60,62,60,58,94,85,69,30.25,30.19,30.12,10,10,10,20,11,24,0.00,0,,332
2012-11-29,73,67,61,61,59,58,93,73,62,30.29,30.25,30.21,10,10,10,15,12,,0.00,1,,32
2012-11-30,75,70,65,63,60,58,85,71,56,30.28,30.23,30.20,10,10,10,15,11,,0.00,1,Rain,60